SCP
0 0 0 0 0 0 0 0 0 0 0 0 0 0 0 0 0 0 0 0 0 0 0 0 0 0 0 0 0 0 0 0 0 0 0 0 0 0 0 0 0 0 0
0 0 0 0 0 0 0 0 0 0 0 0 0 0 0 0 0 0 0 0 0 0 0 0 0 0 0 0 0 0 0 0 0 0 0 0 0 0 0 0 0 0 0
0 0 0 0 -0 0 0 0 0 0 0 0 0 0 0 0 0 0 0 0 0 0 0 0 0 0 0 0 0 0 0 0 0 0 0 0 0 0 0 0 0 0 0
0 0 0 0 -0 0 0 0 0 0 0 0 0 0 0 0 0 0 0 0 0 0 0 0 0 0 0 0 0 0 0 0 0 0 0 0 0 0 0 0 0 0 0
0 0 0 0 -0 0 0 0 0 0 0 0 0 0 0 0 0 0 0 0 0 0 0 0 0 0 0 0 0 0 0 0 0 0 0 0 0 0 0 0 0 0 0
0 0 0 0 0 0 0 0 0 0 0 0 0 0 0 0 0 0 0 0 0 0 0 0 0 0 0 0 0 0 0 0 0 0 0 0 0 0 0 0 0 0 0
0 0 0 0 0 0 0 0 0 0 0 0 0 0 0 0 0 0 0 0 0 0 0 0 0 0 0 0 0 0 0 0 0 0 0 0 0 0 0 0 0 0 0
0 0 0 0 0 0 0 0 0 0 0 0 0 0 0 0 0 0 0 0 0 0 0 0 0 0 0 0 0 0 0 0 0 0 0 0 0 0 0 0 0 0 0
0 0 0 0 0 0 0 0 0 0 0 0 0 0 0 0 0 0 0 0 0 0 0 0 0 0 0 0 0 0 0 0 0 0 0 0 0 0 0 0 0 0 0
0 0 0 0 0 0 0 0 0 0 0 0 0 0 0 0 0 0 0 0 0 0 0 0 0 0 0 0 0 0 0 0 0 0 0 0 0 0 0 0 0 0 0
0 0 0 0 0 0 0 0 0 0 0 0 0 0 0 0 0 0 0 0 0 0 0 0 0 0 0 0 0 0 0 0 0 0 0 0 0 0 0 0 0 0 0
0 0 0 0 0 0 0 0 0 0 0 0 0 0 0 0 0 0 0 0 0 0 0 0 0 0 0 0 0 0 0 0 0 0 0 0 0 0 0 0 0 0 0
0 0 0 0 0 0 0 0 0 0 0 0 0 0 0 0 0 0 0 0 0 0 0 0 0 0 0 0 0 0 0 0 0 0 0 0 0 0 0 0 0 0 0
0 0 0 0 0 0 0 0 0 0 0 0 0 0 0 0 0 0 0 0 0 0 0 0 0 0 0 0 0 0 0 0 0 0 0 0 0 0 0 0 0 0 0
0 0 0 0 0 0 0 0 0 0 0 0 0 0 0 0 0 0 0 0 0 0 0 0 0 0 0 0 0 0 0 0 0 0 0 0 0 0 0 0 0 0 0
0 0 0 0 0 0 0 0 0 0 0 0 0 0 0 0 0 0 0 0 0 0 0 0 0 0 0 0 0 0 0 0 0 0 0 0 0 0 0 0 0 0 0
0 0 0 0 0 0 0 0 0 0 0 0 0 0 0 0 0 0 0 0 0 0 0 0 0 0 0 0 0 0 0 0 0 0 0 0 0 0 0 0 0 0 0
0 0 0 0 0 0 0 0 0 0 0 0 0 0 0 0 0 0 0 0 0 0 0 0 0 0 0 0 0 0 0 0 0 0 0 0 0 0 0 0 0 0 0
0 0 0 0 0 0 0 0 0 0 0 0 0 0 0 0 0 0 0 0 0 0 0 0 0 0 0 0 0 0 0 0 0 0 0 0 0 0 0 0 0 0 0
0 0 0 0 0 0 0 0 0 0 0 0 0 0 0 0 0 0 0 0 0 0 0 0 0 0 0 0 0 0 0 0 0 0 0 0 0 0 0 0 0 0 0
0 0 0 0 0 0 0 0 0 0 0 0 0 0 0 0 0 0 0 0 0 0 0 0 0 0 0 0 0 0 0 0 0 0 0 0 0 0 0 0 0 0 0
0 0 0 0 0 0 0 0 0 0 0 0 0 0 0 0 0 0 0 0 0 0 0 0 0 0 0 0 0 0 0 0 0 0 0 0 0 0 0 0 0 0 0
0 0 0 0 0 0 0 0 0 0 0 0 0 0 0 0 0 0 0 0 0 0 0 0 0 0 0 0 0 0 0 0 0 0 0 0 0 0 0 0 0 0 0
0 0 0 0 0 0 0 0 0 0 0 0 0 0 0 0 0 0 0 0 0 0 0 0 0 0 0 0 0 0 0 0 0 0 0 0 0 0 0 0 0 0 0
0 0 0 0 0 0 0 0 0 0 0 0 0 0 0 0 0 0 0 0 0 0 0 0 0 0 0 0 0 0 0 0 0 0 0 0 0 0 0 0 0 0 0
0 0 0 0 0 0 0 0 0 0 0 0 0 0 0 0 0 0 0 0 0 0 0 0 0 0 0 0 0 0 0 0 0 0 0 0 0 0 0 0 0 0 0
Wind_Speed
1 1 0 0 1 1 1 2 2 3 4 4 4 5 4 4 3 3 3 8 10 9 10 10 10 10 11 11 11 11 11 11 11 11 12 12 12 11 10 9 7 6 5
2 2 2 1 1 1 2 2 3 3 3 4 5 4 5 4 4 4 3 5 9 10 11 12 11 11 11 12 12 12 12 12 13 12 13 13 13 12 11 10 9 8 7
3 3 3 2 1 2 3 3 4 4 4 4 5 4 4 4 4 4 3 3 4 8 11 12 12 12 13 13 13 13 13 13 13 13 14 14 14 13 13 12 11 10 9
4 4 3 2 2 3 3 3 3 4 4 4 4 3 3 3 4 3 3 3 3 4 7 11 12 12 13 13 14 14 14 14 14 14 14 15 15 15 15 14 13 12 11
4 4 3 2 3 3 3 3 3 3 3 3 3 4 4 4 3 3 3 3 3 3 3 7 11 12 13 14 14 14 14 15 15 15 15 14 14 15 15 15 15 14 12
4 4 3 4 4 4 3 3 4 3 3 3 5 5 4 4 3 4 3 3 3 4 4 5 5 7 13 14 14 14 14 15 15 15 15 14 14 15 15 15 15 15 14
4 4 3 3 4 3 3 3 3 4 3 2 4 4 4 5 5 4 3 3 3 3 4 4 4 4 5 12 14 14 14 14 14 15 15 15 15 15 15 16 16 15 15
4 3 4 3 3 3 4 3 3 3 2 1 3 3 3 4 4 5 3 3 4 3 4 5 5 5 4 4 8 13 14 14 14 15 15 15 15 16 15 16 16 15 15
4 4 4 3 3 3 3 2 3 3 2 1 2 3 3 2 1 3 4 4 4 4 3 3 5 5 5 4 5 9 13 13 14 15 15 15 15 15 15 15 16 16 15
3 3 4 4 3 3 3 2 2 2 3 1 1 1 2 4 3 1 3 3 4 4 4 4 4 4 4 4 6 10 12 13 14 15 15 15 15 15 15 15 15 15 15
3 4 4 4 3 2 2 2 3 3 2 2 1 1 2 2 3 3 1 2 3 3 3 3 3 3 4 4 4 8 11 12 13 14 14 14 14 15 15 15 15 14 15
2 3 3 3 3 2 2 2 3 3 2 3 2 2 2 2 2 3 3 1 1 2 3 2 2 2 3 3 5 9 10 11 12 13 13 13 14 14 14 15 15 15 15
1 1 2 3 2 2 3 3 3 3 3 3 2 2 2 2 2 3 4 2 1 1 2 2 2 2 2 2 3 7 9 10 10 11 12 12 13 13 13 14 14 14 14
2 1 2 2 2 3 3 3 3 2 3 3 3 3 2 2 2 3 3 4 3 2 2 2 2 2 2 2 3 5 4 8 9 10 11 11 12 12 13 13 13 13 12
2 3 3 3 3 3 3 4 3 3 3 3 3 4 3 2 2 2 3 3 5 3 0 1 1 1 1 1 2 2 2 5 8 8 9 10 10 11 11 12 12 12 12
2 4 3 3 3 3 3 4 3 3 4 3 2 4 3 2 2 2 2 2 2 4 2 1 1 1 1 1 3 3 3 6 7 7 7 8 9 9 10 10 11 12 11
4 4 3 3 3 3 3 4 3 3 4 3 3 4 3 3 3 2 2 2 2 3 3 0 0 1 1 2 2 2 2 3 3 6 7 7 8 9 9 9 10 11 11
4 4 4 3 3 3 3 4 3 3 4 3 3 3 2 3 4 3 3 3 2 2 3 2 1 1 1 1 1 1 2 2 2 4 5 6 7 7 8 8 9 9 9
4 3 4 4 3 3 3 3 3 3 3 3 3 3 2 4 3 2 3 3 2 3 2 3 1 1 1 1 2 2 2 2 2 2 4 4 4 5 6 6 7 7 8
5 4 4 4 3 3 3 3 3 3 3 2 2 3 3 3 3 3 3 3 3 3 3 3 2 1 1 1 2 2 2 2 2 2 3 3 4 4 5 5 5 6 6
5 4 4 3 3 3 3 4 4 4 3 2 2 2 2 3 5 4 3 3 4 3 2 2 1 1 1 1 1 0 1 1 2 2 2 2 2 2 3 3 4 4 5
4 4 4 4 3 2 5 6 5 4 4 3 2 1 1 2 4 5 6 5 5 4 3 2 1 1 1 1 0 1 1 1 2 2 1 2 1 2 2 2 3 4 4
4 4 4 4 3 3 6 7 7 5 4 3 3 2 1 2 3 3 4 4 2 2 5 5 4 3 3 3 2 1 1 1 2 2 1 2 2 2 2 2 3 4 4
4 4 4 4 3 3 5 7 7 4 3 2 2 3 3 2 3 4 3 2 1 1 1 3 4 4 3 3 3 3 2 1 1 1 1 1 2 2 2 2 4 3 3
4 4 3 4 3 2 4 6 6 3 2 1 1 2 3 3 4 5 4 2 0 1 1 2 3 3 3 4 3 2 1 1 1 2 0 1 1 2 2 2 3 4 4
4 4 3 3 3 2 3 5 6 3 2 1 0 0 2 3 4 5 4 4 2 2 0 1 1 2 1 1 2 3 3 2 1 2 2 1 1 1 2 3 2 2 3
Wind_Direction
131 119 102 65 44 62 78 73 59 56 55 64 89 98 96 88 80 66 57 71 71 68 67 65 62 58 55 52 47 43 39 34 32 31 28 23 21 20 19 21 26 34 44
114 107 85 72 65 80 84 87 80 70 60 65 72 88 96 93 83 75 61 61 64 64 61 61 59 55 54 52 48 44 41 37 34 33 32 29 24 23 25 29 34 38 47
102 101 89 73 73 88 88 79 70 66 69 66 61 69 86 88 85 75 67 57 52 58 59 58 53 51 51 49 48 46 44 41 38 38 35 32 28 31 35 38 41 43 49
88 83 76 68 77 78 79 81 72 73 63 62 58 53 66 76 82 81 69 60 51 54 52 56 54 49 49 48 46 47 46 43 40 40 39 37 35 40 43 43 43 46 52
83 85 79 72 77 73 68 81 71 82 78 70 71 56 51 59 64 84 75 64 57 56 47 52 52 47 47 47 45 45 45 44 41 41 42 42 40 42 44 44 45 47 51
81 83 78 74 77 77 66 73 79 68 78 85 78 59 42 42 45 58 66 61 57 62 54 50 39 38 42 43 42 43 43 44 42 41 43 45 44 44 45 46 48 49 50
75 81 83 74 77 85 93 95 92 74 63 84 82 52 29 33 41 40 42 55 53 56 61 54 45 35 31 36 35 39 40 42 43 43 45 48 48 47 47 47 49 51 50
71 91 96 92 89 88 76 82 97 94 61 63 107 93 47 16 14 24 30 54 52 50 59 61 51 46 37 27 29 37 36 37 42 46 48 50 50 48 47 47 48 51 51
69 83 99 100 96 99 101 99 112 116 114 27 84 130 134 165 5 360 18 30 39 49 50 56 52 42 40 32 24 30 38 37 43 46 49 51 51 49 48 49 49 51 51
64 75 91 96 97 101 108 113 112 119 125 111 42 65 130 146 136 83 359 9 32 45 46 59 50 40 34 30 34 39 42 40 42 45 48 50 52 50 49 48 49 51 52
49 67 82 89 91 93 103 99 98 103 118 133 133 110 83 74 94 124 114 4 22 21 32 49 48 37 28 27 31 44 45 43 43 44 47 50 50 50 50 49 50 51 53
35 52 77 85 91 92 96 100 99 98 98 104 106 110 129 127 136 125 131 124 66 7 14 22 35 32 30 26 42 51 49 46 45 45 46 47 47 48 49 49 49 49 51
73 62 80 86 86 90 94 93 90 88 91 97 101 104 109 126 138 130 125 130 100 6 6 5 -0 14 39 29 31 49 53 51 47 49 49 48 47 47 47 47 47 47 48
172 137 100 93 90 89 93 90 84 84 89 91 89 91 90 88 112 130 139 134 106 36 17 344 340 357 19 28 36 48 48 57 54 53 51 49 47 46 45 44 43 43 45
153 124 112 100 93 93 97 95 83 78 86 83 87 86 84 74 82 100 121 135 136 127 338 295 313 327 347 30 39 47 43 61 61 58 54 52 49 47 46 44 43 43 47
138 129 121 115 105 97 97 92 87 83 86 78 86 86 78 71 69 76 100 105 120 134 150 245 248 267 334 54 59 47 44 57 54 57 58 55 51 49 47 46 45 45 47
149 149 150 134 118 107 103 99 97 94 91 76 73 84 78 79 77 68 79 88 92 113 126 252 310 350 37 49 39 36 41 37 32 50 59 57 52 49 47 47 47 48 48
155 156 150 138 136 129 119 117 114 106 108 104 96 93 84 87 77 69 79 82 87 101 126 128 1 9 30 45 58 56 43 50 34 41 52 51 50 49 47 44 45 47 47
144 144 141 143 146 143 132 129 123 118 121 125 125 119 113 103 90 82 84 87 83 80 91 115 85 12 16 33 51 37 33 24 16 41 41 38 39 42 42 40 39 41 42
142 145 144 144 144 141 139 135 123 116 111 109 118 126 132 134 135 126 107 106 104 87 83 93 78 32 19 11 60 50 19 7 357 12 16 25 27 33 34 36 33 35 34
142 142 131 125 127 134 146 141 134 131 126 112 91 105 131 144 153 149 136 134 122 108 99 95 84 45 15 24 17 360 65 351 347 358 357 358 6 5 359 2 13 22 27
134 131 134 136 137 141 142 143 140 132 133 135 132 112 108 116 123 121 128 137 144 142 145 139 142 159 236 231 202 123 115 50 325 319 15 328 5 329 317 323 330 354 11
139 134 138 139 144 159 150 142 137 131 134 147 155 153 142 132 125 114 100 95 95 146 167 162 167 201 208 210 175 159 179 182 225 263 62 311 330 312 301 321 329 339 354
150 151 153 154 151 173 159 147 139 125 128 151 175 176 163 162 165 152 129 98 56 358 205 173 184 209 212 202 184 183 185 176 294 299 124 261 307 297 309 314 319 322 336
155 160 161 162 161 187 176 159 141 126 131 163 204 178 166 173 187 163 140 140 112 318 350 164 190 215 222 210 175 124 106 94 311 293 242 179 274 297 301 297 305 313 315
162 159 158 168 169 184 188 172 154 139 147 176 221 243 184 181 183 167 158 162 190 245 255 15 3 343 324 290 215 178 170 164 197 273 252 174 245 334 316 294 290 302 307